Showing default

EXPLORER 11, 107

Orbit data source: Space-Track

EXPLORER 11, 107 is a payload satellite owned by GSFC (US) in LEO that was launched on Thu, 27 Apr 1961 UTC via a JUNO II launch vehicle from the Air Force Eastern Test Range (AFETR). Payloads include a variety of satellites, spacecraft, and rockets equipped with specific instruments for various scientific and technological missions. These include communications satellites like Starlink; space stations such as the ISS; scientific satellites like the Hubble; Earth observation satellites from companies like Planet Labs, Umbra, and HawkEye 360; GPS; miniature CubeSats for education and research; and military/defense satellites.

Loading next visibility...
EXPLORER 11 details
Identifier
107, 1961-013A
Orbit
LEO
Last TLE update18 hours ago
Origin
Flag of USGSFC (US)
ManufacturerNASA MSFC
MissionCivil Astronomy
Bus & MotorS-15, Unknown motor
Mass45 kg wet, 40 kg dry
Launch date (UTC)
1961-04-27 (64 years ago)
Launch vehicle
JUNO II
Launch site
Air Force Eastern Test Range (AFETR)
Object type
Payload
Rocket body
Debris
Shape & HBRCyl, 1.1 m
Radar Cross Section0.295 m², Medium (>0.1 m² and < 1m²)

Expand to show TLE details & history

TLE from 18 hours ago
0 EXPLORER 11
1 00107U 61013A   24355.92522280  .00007992  00000-0  99286-3 0  9992
2 00107  28.7827 199.9270 0511010 108.9815 256.6824 14.17921957199199
Epoch: 2024-12-20T22:12Z
Definitive object data (Epoch: 2024-12-20T22:12:19.249Z)
Latitude-0.00001°
Longitude136.86303°
Altitude933.093 km
Speed7.335 km/s
True Right ascension13h 19m 42s
True Declination0° 00' 00"
Sunlit
Object was in daylight at TLE epoch
Visualization TLE readout
Latitude-15.29697°
Longitude-17.70746°
Altitude860.868 km
Speed7.41 km/s
Apparent Right ascension03h 02m 58s
Apparent Declination-26° 40' 32"
Sunlit
Object is in full shadow
Visualization observer readout
Local Sidereal Time15:05:10
Azimuth2.148° NNE
Elevation-76.751°
Doppler factor1
Orbital elements
Apogee altitude1,205.065 km
Perigee altitude467.725 km
Semi-major axis7,214.532 km
Eccentricity0.051101
Inclination28.7827°
RAAN199.927°
Arg. of periapsis108.9815°
True anomaly251.07575°
Mean anomaly256.6824°
Eccentric anomaly253.86979°
Mean motion3.54186 °/min
BSTAR0.00099286
Orbital period101.64 mins
Loading maneuver chart data...
Loading historical data...
Loading historical data...
Loading historical data...
Loading historical data...
Loading historical data...
Loading historical data...
Loading historical data...
Other satellites on launch #13 in the year 1961 (1961-04-27 UTC)

EXPLORER 11 Visibility forecast

Observer location: undefined°, undefined

Span
Click to sort rows by Start time (UTC) header in descending order
Start Az.
Max El. time (UTC)
Max El. Az.
Max El.
End time (UTC)
End Az.
4 mins2024-12-21 18:47:46.919Z204.17° SW2024-12-21 18:49:46.919Z173.402° S14.669°2024-12-21 18:51:46.919Z141.32° SSE
|